Weather History for Casper, WY

Change the Weather History Date:

Tuesday, February 4, 2014

  Actual Average Record
Temperature  
Mean Temperature 0 °F 25 °F  
Max Temperature 13 °F 36 °F 61 °F (1963)
Min Temperature -14 °F 14 °F -27 °F (1982)
Degree Days  
Heating Degree Days 65 40  
Month to date heating degree days 219 160  
Since 1 July heating degree days 4701 4537  
Cooling Degree Days 0 0  
Month to date cooling degree days 0 0  
Year to date cooling degree days 0 0  
Moisture  
Dew Point -7 °F    
Average Humidity 77    
Maximum Humidity 88    
Minimum Humidity 65    
Precipitation  
Precipitation 0.05 in 0.01 in 0.18 in (1986)
Month to date precipitation 0.06 0.07  
Year to date precipitation 0.80 0.58  
Snow  
Snow 1.60 in 0.40 in - ()
Month to date snowfall 1.8 1.4  
Since 1 July snowfall 56.5 41.0  
Snow Depth 2.00 in    
Sea Level Pressure  
Sea Level Pressure 30.19 in    
Wind  
Wind Speed 15 mph (NNE)    
Max Wind Speed 26 mph    
Max Gust Speed 31 mph    
Visibility 4 miles    
Events Snow    
T = Trace of Precipitation, MM = Missing Value Source: NWS Daily Summary

Daily Weather History Graph

Daily Weather History Graph

Search for Another Location

Airport:

Trip Planner

Search our weather history database for the weather conditions in past years. The results will help you decide how hot, cold, wet, or windy it might be!

Date:

Astronomy

Feb. 04, 2014 Rise Set
Actual Time 7:17 AM MST 5:22 PM MST
Civil Twilight 6:47 AM MST 5:52 PM MST
Nautical Twilight 6:13 AM MST 6:26 PM MST
Astronomical Twilight 5:40 AM MST 6:59 PM MST
Moon 9:47 AM MST (2/4) 11:30 PM MST (2/4)
Length of Visible Light 11h 05m
Length of Day
10h 05m
Waxing Crescent, 29% of the Moon is Illuminated
Feb 4
Waxing Crescent
Feb 6
First Quarter
Feb 14
Full
Feb 22
Last Quarter
Mar 1
New

Hourly Weather History & Observations

Time (MST) Temp. Windchill Dew Point Humidity Pressure Visibility Wind Dir Wind Speed Gust Speed Precip Events Conditions
12:53 AM 10.9 °F -4.7 °F 7.0 °F 84% 30.03 in 3.0 mi NNE 13.8 mph - 0.00 in Snow Light Snow
1:53 AM 10.9 °F -4.7 °F 7.0 °F 84% 30.04 in 4.0 mi ENE 13.8 mph - 0.00 in Snow Light Snow
2:50 AM 8.6 °F -8.9 °F 5.0 °F 85% 29.89 in 1.8 mi NE 16.1 mph - 0.00 in Snow Light Snow
2:53 AM 9.0 °F -7.9 °F 5.0 °F 84% 30.07 in 1.2 mi NE 15.0 mph - 0.00 in Snow Light Snow
3:53 AM 7.0 °F -11.0 °F 3.0 °F 84% 30.09 in 1.8 mi NE 16.1 mph - 0.01 in Snow Light Snow
4:23 AM 6.1 °F -12.8 °F 1.9 °F 83% 29.92 in 1.5 mi NNE 17.3 mph - 0.01 in Snow Light Snow
4:47 AM 3.2 °F -18.1 °F -0.4 °F 85% 29.93 in 2.0 mi North 20.7 mph - 0.01 in Snow Light Snow
4:53 AM 3.0 °F -19.3 °F -2.0 °F 80% 30.15 in 2.0 mi NNE 23.0 mph - 0.01 in Snow Light Snow
5:23 AM 1.9 °F -20.7 °F -2.0 °F 83% 29.94 in 3.0 mi NNE 23.0 mph - 0.00 in Snow Light Snow
5:34 AM 1.9 °F -20.7 °F -2.9 °F 80% 29.94 in 4.0 mi NNE 23.0 mph 29.9 mph 0.00 in Snow Light Snow
5:48 AM 1.4 °F -21.0 °F -2.2 °F 85% 29.94 in 2.5 mi NNE 21.9 mph - 0.00 in Snow Light Snow
5:53 AM 1.9 °F -18.7 °F -2.9 °F 80% 30.18 in 2.0 mi NNE 18.4 mph - 0.00 in Snow Light Snow
6:03 AM 1.0 °F -22.8 °F -4.0 °F 79% 29.95 in 1.8 mi North 25.3 mph 29.9 mph 0.00 in Snow Light Snow
6:24 AM 1.0 °F -21.9 °F -4.0 °F 79% 29.96 in 2.0 mi NNE 23.0 mph 29.9 mph 0.01 in Snow Light Snow
6:34 AM 1.0 °F -20.9 °F -5.1 °F 75% 29.96 in 3.0 mi NNE 20.7 mph 29.9 mph 0.01 in Snow Light Snow
6:53 AM -0.0 °F -22.9 °F -5.1 °F 79% 30.23 in 2.5 mi NNE 21.9 mph 29.9 mph 0.01 in Snow Light Snow
6:56 AM -0.0 °F -23.8 °F -5.1 °F 79% 29.97 in 2.5 mi NNE 24.2 mph 31.1 mph 0.00 in Snow Light Snow
7:13 AM -0.0 °F -23.8 °F -5.1 °F 79% 29.98 in 1.5 mi NNE 24.2 mph - 0.00 in Snow Light Snow
7:53 AM -0.0 °F -22.9 °F -5.1 °F 79% 30.26 in 0.8 mi NNE 21.9 mph - 0.00 in Snow Light Snow
8:16 AM -0.0 °F -22.4 °F -5.1 °F 79% 30.01 in 1.0 mi NNE 20.7 mph 27.6 mph 0.00 in Snow Light Snow
8:23 AM -0.0 °F -22.4 °F -5.1 °F 79% 30.01 in 0.8 mi NNE 20.7 mph - 0.00 in Snow Light Snow
8:51 AM -0.4 °F -24.3 °F -5.8 °F 78% 30.03 in 0.8 mi NNE 24.2 mph 31.1 mph 0.00 in Snow Light Snow
8:53 AM -0.0 °F -22.4 °F -6.0 °F 76% 30.28 in 1.8 mi NNE 20.7 mph 31.1 mph 0.00 in Snow Light Snow
9:53 AM -0.0 °F -22.4 °F -7.1 °F 72% 30.30 in 1.8 mi NNE 20.7 mph - 0.00 in Snow Light Snow
10:01 AM -0.0 °F -23.3 °F -7.1 °F 72% 30.05 in 2.0 mi NNE 23.0 mph - 0.00 in Snow Light Snow
10:08 AM -0.0 °F -22.4 °F -6.0 °F 76% 30.05 in 1.8 mi NNE 20.7 mph - 0.00 in Snow Light Snow
10:38 AM -0.0 °F -22.9 °F -7.1 °F 72% 30.07 in 1.2 mi NNE 21.9 mph 27.6 mph 0.00 in Snow Light Snow
10:53 AM -0.0 °F -22.9 °F -6.0 °F 76% 30.33 in 1.2 mi NNE 21.9 mph - 0.00 in Snow Light Snow
11:28 AM -0.0 °F -22.4 °F -7.1 °F 72% 30.08 in 1.8 mi NNE 20.7 mph 27.6 mph 0.00 in Snow Light Snow
11:42 AM -0.0 °F -22.9 °F -8.0 °F 69% 30.07 in 2.0 mi NNE 21.9 mph 28.8 mph 0.00 in Snow Light Snow
11:53 AM -0.0 °F -22.4 °F -8.0 °F 69% 30.33 in 2.5 mi NNE 20.7 mph - 0.00 in Snow Light Snow
11:59 AM -0.0 °F -21.8 °F -7.1 °F 72% 30.07 in 1.8 mi North 19.6 mph - 0.00 in Snow Light Snow
12:30 PM -0.0 °F -22.9 °F -8.0 °F 69% 30.07 in 3.0 mi NNE 21.9 mph - 0.00 in Snow Light Snow
12:43 PM -0.9 °F -23.5 °F -9.0 °F 69% 30.07 in 9.0 mi NNE 20.7 mph - 0.00 in   Overcast
12:53 PM -0.0 °F -21.8 °F -8.0 °F 69% 30.34 in 7.0 mi North 19.6 mph - 0.00 in   Overcast
1:19 PM -0.0 °F -22.9 °F -8.0 °F 69% 30.08 in 2.0 mi NNE 21.9 mph - 0.00 in Snow Light Snow
1:37 PM -0.9 °F -21.2 °F -8.0 °F 72% 30.09 in 2.5 mi North 16.1 mph - 0.00 in Snow Light Snow
1:53 PM -0.0 °F -22.9 °F -8.0 °F 69% 30.36 in 2.5 mi NNE 21.9 mph 26.5 mph 0.00 in Snow Light Snow
2:53 PM -0.9 °F -21.9 °F -9.0 °F 69% 30.40 in 2.5 mi NNE 17.3 mph - 0.01 in Snow Light Snow
3:10 PM -2.0 °F -23.9 °F -9.0 °F 72% 30.12 in 2.5 mi NNE 18.4 mph - 0.00 in Snow Light Snow
3:32 PM -2.0 °F -23.3 °F -9.0 °F 72% 30.13 in 1.8 mi NE 17.3 mph - 0.00 in Snow Light Snow
3:53 PM -2.0 °F -22.6 °F -9.0 °F 72% 30.44 in 1.5 mi NNE 16.1 mph - 0.00 in Snow Light Snow
4:53 PM -2.9 °F -23.1 °F -9.9 °F 72% 30.48 in 1.8 mi NNE 15.0 mph - 0.01 in Snow Light Snow
5:41 PM -4.0 °F -24.5 °F -9.9 °F 76% 30.17 in 6.0 mi NNE 15.0 mph - 0.00 in   Haze
5:53 PM -5.1 °F -23.5 °F -9.9 °F 80% 30.51 in 10.0 mi NNE 11.5 mph - 0.00 in   Overcast
6:53 PM -6.0 °F -22.6 °F -11.0 °F 79% 30.55 in 8.0 mi NNE 9.2 mph - N/A   Overcast
7:33 PM -7.1 °F -23.9 °F -11.9 °F 79% 30.21 in 5.0 mi NNE 9.2 mph - 0.00 in   Haze
7:53 PM -8.0 °F -23.9 °F -13.0 °F 79% 30.57 in 10.0 mi NNE 8.1 mph - 0.00 in   Overcast
8:21 PM -9.0 °F -23.8 °F -14.1 °F 79% 30.22 in 10.0 mi NNE 6.9 mph - N/A   Overcast
8:53 PM -9.0 °F - -15.0 °F 75% 30.59 in 10.0 mi Calm Calm - N/A   Overcast
9:53 PM -9.9 °F -19.2 °F -15.0 °F 78% 30.62 in 9.0 mi NE 3.5 mph - N/A   Overcast
10:07 PM -9.0 °F -20.4 °F -15.0 °F 75% 30.26 in 4.0 mi NNE 4.6 mph - N/A   Haze
10:53 PM -9.9 °F -24.9 °F -15.0 °F 78% 30.63 in 7.0 mi NE 6.9 mph - N/A   Overcast
11:53 PM -13.0 °F -27.0 °F -18.0 °F 78% 30.64 in 10.0 mi NNE 5.8 mph - N/A   Mostly Cloudy